Regional Weather Roundup
Issued by NWS

Home | Current Version | Previous Version | Text Only | Print | Product List | Glossary Off
Versions: 1 2 3 4 5 6 7 8 9 10 11 12 13 14 15 16 17 18 19 20 21 22 23 24 25 26 27 28 29 30 31 32 33 34 35 36 37 38 39 40 41 42 43 44 45 46 47 48 49 50

078
ASUS44 KJAN 210310
RWRMS

MISSISSIPPI HOURLY WEATHER ROUNDUP
NATIONAL WEATHER SERVICE JACKSON MS
1000 PM CDT SAT SEP 20 2014

NOTE: "FAIR: INDICATES FEW OR NO CLOUDS BELOW 12,000 FEET WITH NO
SIGNIFICANT WEATHER AND/OR OBSTRUCTIONS TO VISIBILITY.

MSZ001>002-007>008-010>013-018>021-025>028-034>036-210400-
NORTHWEST MISSISSIPPI

CITY           SKY/WX    TMP DP  RH WIND       PRES   REMARKS
CLARKSDALE     FAIR      77  72  83 CALM      30.01R
CLEVELAND      FAIR      78  71  77 E5        30.00R
GREENWOOD      PTCLDY    72  69  90 CALM      30.01R
GREENVILLE     MOCLDY    77  67  71 E5        29.99R
GRENADA        FAIR      72  70  94 CALM      30.01F
OLIVE BRANCH   CLEAR     73  73 100 S3        30.02S
OXFORD         FAIR      70  68  94 CALM      30.05R
TUNICA         PTCLDY    72  68  88 CALM      30.02R
$$

MSZ003>006-009-014>017-022>024-029>033-037>039-210400-
NORTHEAST MISSISSIPPI

CITY           SKY/WX    TMP DP  RH WIND       PRES   REMARKS
COLUMBUS AFB   MOCLDY    72  66  82 CALM      30.03R
CORINTH          N/A     70  68  94 CALM      30.03R
GOLDN TRIANGLE MOCLDY    73  63  68 CALM      30.03R
STARKVILLE     FAIR      70  66  88 CALM      30.02S
TUPELO         PTCLDY    74  68  81 CALM      30.02R
$$

MSZ040-058-210400-
CENTRAL MISSISSIPPI

CITY           SKY/WX    TMP DP  RH WIND       PRES   REMARKS
JACKSON INTL   CLEAR     72  68  87 SE3       30.01R
JACKSON HAWKNS CLEAR     75  67  76 CALM      30.02R
MERIDIAN KEY   PTCLDY    70  65  84 CALM      30.02R
MERIDIAN NAS   CLEAR     74  65  73 CALM      30.03R
RAYMOND        FAIR      72  66  83 CALM      30.02R
VICKSBURG      CLEAR     72  69  90 CALM      30.00R
$$

MSZ059>079-210400-
SOUTH MISSISSIPPI

CITY           SKY/WX    TMP DP  RH WIND       PRES   REMARKS
BROOKHAVEN     FAIR      72  68  88 CALM      30.03R
COLUMBIA       FAIR      72  70  94 E3        29.99R
HATTIESBURG    CLEAR     73  69  87 CALM      30.01R
MCCOMB         CLEAR     73  68  84 CALM      30.00R HAZE
NATCHEZ        CLEAR     73  70  88 CALM      30.01R
PINE BELT      CLEAR    N/A N/A N/A SE5       30.02R
$$

MSZ080>082-210400-
COASTAL MISSISSIPPI

CITY           SKY/WX    TMP DP  RH WIND       PRES   REMARKS
BILOXI         CLEAR     76  68  76 NE6       30.00R
PASCAGOULA     CLEAR     70  68  93 CALM      30.00R
GULFPORT       CLEAR     77  68  73 E8        29.99R
$$



USA.gov is the U.S. government's official web portal to all federal, state and local government web resources and services.